Погода в Заутеланде

Нидерланды     51°30′06″N   3°28′56″E
темп.,
°C
ветер,
м/с
пор.,
м/с
влажн.,
%
обл.,
%
осадки,
мм/ч
давл.,
гПа
погр.,
м
19 сентября, вс
вс1923:00+16в5779100 0.1 101551
02:00+14в5683100 0.2 101446
05:00+14в4482100 0.0 101342
08:00+14в4485100 0.0 101340
11:00+15в3381100 0.0 101437
14:00+16в3372100 0.0 101463
17:00+17всв3369100 0.0 101473
20:00+16св3376100 0.0 101416
20 сентября, пн
пн2023:00+16в4474100 0.0 101632
02:00+15в3375100 0.1 101624
05:00+15всв4475100 0.0 101726
08:00+14всв4573100 0.0 101946
11:00+14св457494 0.0 102057
14:00+12с568217 0.0 1022160
17:00+12с57825 0.0 1022128
20:00+12с710825 0.0 1024144
21 сентября, вт
вт2123:00+12ссв58830 0.0 1025123
02:00+12ссв448495 0.0 102665
05:00+12ссв338286 0.0 102744
08:00+12св337910 0.0 102842
11:00+12св237656 0.0 102956
14:00+12с3375100 0.0 1029122
17:00+13с4471100 0.0 102994
20:00+13ссв336975 0.0 102926
22 сентября, ср
ср2223:00+13св2268100 0.0 103015
02:00+12юв2270100 0.0 102912
05:00+12ю2275100 0.0 102822
08:00+11ю23788 0.0 102756
11:00+12ююз22765 0.0 102740
14:00+13зсз22735 0.0 102585
17:00+12сз33761 0.0 102380
20:00+13зсз22745 0.0 102215
23 сентября, чт
чт2323:00+12юз45805 0.0 102147
02:00+12юз58844 0.0 1020102
05:00+12зюз589210 0.0 1019113
08:00+12ссз4693100 0.0 101996
11:00+11ссз5696100 0.0 1019179
14:00+11ссз4687100 0.0 1020293
17:00+11сз4581100 0.0 1019242
20:00+11зюз3476100 0.0 1017103